CW5920 Weather Reports


Display with metric or nautical units.
time (UTC)temp
F
wind
direction
speed
MPH
gust
MPH
rain 1hr
in
rain 24hr
in
rain mn
in
humidity
%
barometer
mb
20260902215516 98 45 4.0 12.0 0.00 0.00 0.00 38 1011.5
20260902214536 98 68 5.0 13.0 0.00 0.00 0.00 40 1011.7
20260902213516 99 68 7.0 13.0 0.00 0.00 0.00 40 1011.7
20260902212516 99 23 4.0 11.0 0.00 0.00 0.00 40 1011.8
20260902211517 99 338 6.0 11.0 0.00 0.00 0.00 40 1011.8
20260902210516 99 0 5.0 10.0 0.00 0.00 0.00 40 1011.9
20260902205517 99 0 5.0 12.0 0.00 0.00 0.00 40 1012.1
20260902204516 99 45 5.0 11.0 0.00 0.00 0.00 41 1012.2
20260902203537 98 45 5.0 11.0 0.00 0.00 0.00 40 1012.3
20260902202517 99 0 4.0 10.0 0.00 0.00 0.00 40 1012.4
20260902201517 99 0 4.0 10.0 0.00 0.00 0.00 40 1012.6
20260902200517 99 90 3.0 10.0 0.00 0.00 0.00 41 1012.7
20260902195516 99 68 5.0 12.0 0.00 0.00 0.00 40 1012.9
20260902194516 99 0 3.0 10.0 0.00 0.00 0.00 40 1013.0
20260902193517 99 45 5.0 10.0 0.00 0.00 0.00 39 1013.2
20260902192517 99 338 4.0 11.0 0.00 0.00 0.00 39 1013.5
20260902191517 98 338 4.0 13.0 0.00 0.00 0.00 40 1013.6
20260902190516 98 0 4.0 11.0 0.00 0.00 0.00 41 1013.7
20260902185516 98 90 8.0 14.0 0.00 0.00 0.00 40 1013.9
20260902184517 98 0 2.0 9.0 0.00 0.00 0.00 42 1014.0
20260902183516 97 45 5.0 12.0 0.00 0.00 0.00 41 1014.2
20260902182517 98 338 3.0 8.0 0.00 0.00 0.00 41 1014.4
20260902181517 98 0 3.0 7.0 0.00 0.00 0.00 41 1014.5
20260902180517 98 0 2.0 10.0 0.00 0.00 0.00 42 1014.8
20260902175536 98 338 5.0 11.0 0.00 0.00 0.00 42 1015.0
20260902174517 97 338 4.0 10.0 0.00 0.00 0.00 43 1015.2
20260902173516 97 293 5.0 11.0 0.00 0.00 0.00 43 1015.3
20260902172516 96 0 2.0 6.0 0.00 0.00 0.00 44 1015.4
20260902171556 96 68 2.0 9.0 0.00 0.00 0.00 46 1015.5
20260902170516 96 68 2.0 8.0 0.00 0.00 0.00 45 1015.7
20260902165517 95 113 2.0 6.0 0.00 0.00 0.00 46 1015.7
20260902164517 95 68 1.0 4.0 0.00 0.00 0.00 47 1015.8
20260902163516 95 45 1.0 7.0 0.00 0.00 0.00 47 1015.8
20260902162516 94 68 1.0 7.0 0.00 0.00 0.00 47 1015.9
20260902161516 94 135 1.0 4.0 0.00 0.00 0.00 49 1016.0
20260902160516 93 0.0 3.0 0.00 0.00 0.00 51 1016.1
20260902155516 92 0.0 3.0 0.00 0.00 0.00 53 1016.0
20260902154516 91 68 2.0 5.0 0.00 0.00 0.00 55 1016.0
20260902153536 91 23 1.0 4.0 0.00 0.00 0.00 56 1016.0
20260902152516 90 0.0 2.0 0.00 0.00 0.00 58 1016.1
20260902151517 90 68 1.0 6.0 0.00 0.00 0.00 59 1016.1
20260902150516 89 90 1.0 4.0 0.00 0.00 0.00 59 1016.1
20260902145517 88 0.0 2.0 0.00 0.00 0.00 62 1016.0
20260902144536 87 90 1.0 3.0 0.00 0.00 0.00 64 1016.0
20260902143516 86 90 2.0 3.0 0.00 0.00 0.00 65 1016.1
20260902142516 85 90 1.0 3.0 0.00 0.00 0.00 67 1016.0
20260902141516 84 90 2.0 5.0 0.00 0.00 0.00 68 1016.0
20260902140518 84 90 4.0 7.0 0.00 0.00 0.00 70 1016.1
20260902135516 83 68 3.0 8.0 0.00 0.00 0.00 71 1016.2
20260902134517 82 90 2.0 5.0 0.00 0.00 0.00 73 1016.1
20260902133516 81 158 2.0 4.0 0.00 0.00 0.00 75 1016.0
20260902132516 80 158 2.0 4.0 0.00 0.00 0.00 77 1016.0
20260902131517 79 158 1.0 3.0 0.00 0.00 0.00 79 1015.8
20260902130557 78 158 1.0 2.0 0.00 0.00 0.00 80 1015.7
20260902125516 77 0.0 2.0 0.00 0.00 0.00 83 1015.5
20260902124516 76 0.0 0.0 0.00 0.00 0.00 84 1015.4
20260902123536 76 0.0 3.0 0.00 0.00 0.00 84 1015.4
20260902122516 75 0.0 1.0 0.00 0.00 0.00 84 1015.3
20260902121536 75 0.0 1.0 0.00 0.00 0.00 83 1015.2
20260902121016 75 0.0 0.0 0.00 0.00 0.00 83 1015.1
20260902120016 76 0.0 0.0 0.00 0.00 0.00 82 1015.2
20260902115016 76 0.0 0.0 0.00 0.00 0.00 82 1015.2
20260902114016 76 0.0 0.0 0.00 0.00 0.00 82 1015.2
20260902113016 76 0.0 0.0 0.00 0.00 0.00 82 1015.3
20260902112016 76 0.0 0.0 0.00 0.00 0.00 82 1015.4
20260902111016 77 0.0 3.0 0.00 0.00 0.00 82 1015.3
20260902110016 77 0.0 0.0 0.00 0.00 0.00 80 1015.3
20260902105016 77 0.0 0.0 0.00 0.00 0.00 79 1015.2
20260902104016 78 0.0 0.0 0.00 0.00 0.00 79 1015.2
20260902103016 78 0.0 0.0 0.00 0.00 0.00 78 1015.2
20260902102016 78 0.0 0.0 0.00 0.00 0.00 77 1015.2
20260902101036 78 0.0 0.0 0.00 0.00 0.00 78 1015.0
20260902100016 78 0.0 0.0 0.00 0.00 0.00 77 1015.1
20260902095016 79 0.0 0.0 0.00 0.00 0.00 77 1015.1
20260902094016 79 0.0 0.0 0.00 0.00 0.00 76 1015.1
20260902093016 79 0.0 0.0 0.00 0.00 0.00 76 1015.1
20260902092016 80 0.0 0.0 0.00 0.00 0.00 75 1015.2
20260902091016 80 0.0 0.0 0.00 0.00 0.00 74 1015.3
20260902090016 80 0.0 0.0 0.00 0.00 0.00 74 1015.3
20260902085017 80 0.0 0.0 0.00 0.00 0.00 74 1015.3
20260902084017 80 0.0 1.0 0.00 0.00 0.00 73 1015.3
20260902083017 81 0.0 0.0 0.00 0.00 0.00 73 1015.4
20260902082015 81 0.0 2.0 0.00 0.00 0.00 73 1015.5
20260902081017 81 0.0 2.0 0.00 0.00 0.00 72 1015.4
20260902080015 81 0.0 2.0 0.00 0.00 0.00 71 1015.4
20260902075017 82 0.0 2.0 0.00 0.00 0.00 71 1015.3
20260902074015 82 158 1.0 3.0 0.00 0.00 0.00 70 1015.5
20260902073017 82 158 1.0 4.0 0.00 0.00 0.00 69 1015.5
20260902072037 83 0.0 2.0 0.00 0.00 0.00 69 1015.7
20260902071017 83 158 1.0 7.0 0.00 0.00 0.00 68 1015.7
20260902070017 83 135 1.0 4.0 0.00 0.00 0.00 68 1015.6
20260902065017 83 135 3.0 5.0 0.00 0.00 0.00 68 1015.5
20260902064057 83 158 4.0 8.0 0.00 0.00 0.00 67 1015.6
20260902063017 83 135 4.0 12.0 0.00 0.00 0.00 67 1015.6
20260902062018 83 135 5.0 10.0 0.00 0.00 0.00 67 1015.5
20260902061017 83 113 7.0 10.0 0.00 0.00 0.00 67 1015.5
20260902060017 84 113 5.0 10.0 0.00 0.00 0.00 66 1015.4
20260902055017 84 113 6.0 12.0 0.00 0.00 0.00 66 1015.3
20260902054037 84 113 5.0 10.0 0.00 0.00 0.00 65 1015.2
20260902053017 84 135 5.0 10.0 0.00 0.00 0.00 65 1015.1
20260902052017 85 113 4.0 9.0 0.00 0.00 0.00 64 1015.1
20260902051017 85 113 6.0 12.0 0.00 0.00 0.00 63 1015.1
20260902050017 85 113 7.0 13.0 0.00 0.00 0.00 62 1015.1
20260902045017 86 113 9.0 14.0 0.00 0.00 0.00 61 1015.1
20260902044017 86 113 8.0 14.0 0.00 0.00 0.00 60 1015.0
20260902043017 86 113 5.0 11.0 0.00 0.00 0.00 59 1015.0
20260902042017 86 90 8.0 13.0 0.00 0.00 0.00 60 1014.9
20260902041017 86 0.0 0.0 0.00 0.00 0.00 59 1014.6
20260902040037 86 0.0 2.0 0.00 0.00 0.00 59 1014.5
20260902035017 87 0.0 0.0 0.00 0.00 0.00 58 1014.7
20260902034017 87 0.0 1.0 0.00 0.00 0.00 57 1014.7
20260902033017 87 113 1.0 3.0 0.00 0.00 0.00 57 1014.6
20260902032017 87 113 1.0 3.0 0.00 0.00 0.00 56 1014.6
20260902031017 88 113 1.0 3.0 0.00 0.00 0.00 56 1014.4
20260902030037 88 113 1.0 4.0 0.00 0.00 0.00 55 1014.3
20260902025017 88 0.0 3.0 0.00 0.00 0.00 55 1014.1
20260902024017 88 0.0 2.0 0.00 0.00 0.00 54 1013.8
20260902023017 89 0.0 2.0 0.00 0.00 0.00 54 1013.7
20260902022017 89 0.0 1.0 0.00 0.00 0.00 53 1013.6
20260902021017 90 0.0 2.0 0.00 0.00 0.00 52 1013.4
20260902020017 90 0.0 3.0 0.00 0.00 0.00 51 1013.4
20260902015017 91 90 1.0 6.0 0.00 0.00 0.00 51 1013.3
20260902014017 91 0.0 1.0 0.00 0.00 0.00 49 1013.0
20260902013017 92 0.0 0.0 0.00 0.00 0.00 48 1013.0
20260902012017 92 0.0 1.0 0.00 0.00 0.00 47 1013.0
20260902011017 93 0.0 2.0 0.00 0.00 0.00 47 1012.8
20260902010017 93 90 2.0 4.0 0.00 0.00 0.00 46 1012.8
20260902005017 94 68 2.0 5.0 0.00 0.00 0.00 45 1012.8
20260902004017 94 90 4.0 7.0 0.00 0.00 0.00 45 1012.7
20260902003017 95 90 5.0 10.0 0.00 0.00 0.00 44 1012.9
20260902002017 95 90 7.0 12.0 0.00 0.00 0.00 43 1012.8
20260902001017 96 90 6.0 9.0 0.00 0.00 0.00 43 1012.9
20260902000017 96 113 8.0 13.0 0.00 0.00 0.00 42 1012.9
20260901235017 96 113 5.0 9.0 0.00 0.00 0.00 42 1012.9
20260901234037 96 113 3.0 7.0 0.00 0.00 0.00 42 1013.1
20260901233017 97 113 2.0 7.0 0.00 0.00 0.00 41 1013.1
20260901232017 97 135 4.0 7.0 0.00 0.00 0.00 41 1013.2
20260901231037 97 90 6.0 9.0 0.00 0.00 0.00 40 1013.3
20260901230017 98 113 7.0 10.0 0.00 0.00 0.00 40 1013.3
20260901225017 98 113 7.0 13.0 0.00 0.00 0.00 39 1013.2
20260901224017 98 113 8.0 12.0 0.00 0.00 0.00 40 1013.2
20260901223017 98 113 8.0 13.0 0.00 0.00 0.00 41 1013.2
20260901222037 97 68 8.0 15.0 0.00 0.00 0.00 41 1013.2
20260901221017 96 90 4.0 8.0 0.00 0.00 0.00 42 1013.2